Tracking 18951 objects as of 21-Jan-2018
HD Live streaming from Space Station
objects crossing your sky now

FENGYUN 1C DEB

Track FENGYUN 1C DEB now!
10-day predictions


NORAD ID: 30397
Int'l Code: 1999-025ADL
Perigee: 814.0 km
Apogee: 1,053.7 km
Inclination: 98.4 °
Period: 103.6 minutes
Semi major axis: 7304 km
RCS: 0.041 m2 (small)
Launch date: May 10, 1999
Source: People's Republic of China (PRC)
Launch site: Taiyaun Space Center, China (TSC)

Note: This is SATELLITE DEBRIS
aabbcc
Your satellite tracking list
Your tracking list is empty




NASA's NSSDC Master Catalog

Two Line Element Set (TLE):
1 30397U 99025ADL 18020.77282630 +.00000330 +00000-0 +26463-3 0  9993
2 30397 098.3772 033.3068 0164027 182.8080 230.7719 13.90544722556338
Source of the keplerian elements: AFSPC